| time (UTC) | temp F | wind direction | speed MPH | gust MPH | rain 1hr in | rain 24hr in | rain mn in | humidity % | barometer mb |
| 20260503225319 | 61 | 248 | 6.0 | 11.0 | 0.00 | 0.00 | 0.00 | 64 | 1012.4 |
| 20260503224321 | 61 | 274 | 8.0 | 11.0 | 0.00 | 0.00 | 0.00 | 64 | 1012.6 |
| 20260503223326 | 61 | 242 | 6.0 | 12.0 | 0.00 | 0.00 | 0.00 | 66 | 1012.6 |
| 20260503222329 | 61 | 286 | 7.0 | 12.0 | 0.00 | 0.00 | 0.00 | 66 | 1012.6 |
| 20260503221318 | 61 | 244 | 6.0 | 12.0 | 0.00 | 0.00 | 0.00 | 67 | 1012.6 |
| 20260503220342 | 61 | 274 | 5.0 | 9.0 | 0.00 | 0.00 | 0.00 | 66 | 1012.8 |
| 20260503215334 | 61 | 298 | 5.0 | 11.0 | 0.00 | 0.00 | 0.00 | 65 | 1012.9 |
| 20260503214325 | 60 | 252 | 5.0 | 11.0 | 0.00 | 0.00 | 0.00 | 65 | 1012.8 |
| 20260503213328 | 60 | 324 | 6.0 | 13.0 | 0.00 | 0.00 | 0.00 | 67 | 1012.6 |
| 20260503212318 | 61 | 264 | 6.0 | 10.0 | 0.00 | 0.00 | 0.00 | 64 | 1012.7 |
| 20260503211322 | 60 | 292 | 4.0 | 10.0 | 0.00 | 0.00 | 0.00 | 67 | 1012.7 |
| 20260503210327 | 60 | 254 | 4.0 | 12.0 | 0.00 | 0.00 | 0.00 | 68 | 1012.8 |
| 20260503205319 | 60 | 320 | 4.0 | 12.0 | 0.00 | 0.00 | 0.00 | 68 | 1012.7 |
| 20260503204327 | 60 | 267 | 7.0 | 12.0 | 0.00 | 0.00 | 0.00 | 67 | 1012.6 |
| 20260503203345 | 60 | 241 | 6.0 | 11.0 | 0.00 | 0.00 | 0.00 | 66 | 1012.6 |
| 20260503202340 | 60 | 292 | 7.0 | 12.0 | 0.00 | 0.00 | 0.00 | 66 | 1012.7 |
| 20260503201320 | 60 | 260 | 6.0 | 9.0 | 0.00 | 0.00 | 0.00 | 66 | 1012.8 |
| 20260503200348 | 60 | 335 | 4.0 | 12.0 | 0.00 | 0.00 | 0.00 | 67 | 1012.9 |
| 20260503195319 | 59 | 244 | 8.0 | 12.0 | 0.00 | 0.00 | 0.00 | 67 | 1012.9 |
| 20260503194323 | 59 | 305 | 4.0 | 9.0 | 0.00 | 0.00 | 0.00 | 67 | 1013.1 |
| 20260503193316 | 59 | 255 | 5.0 | 11.0 | 0.00 | 0.00 | 0.00 | 67 | 1013.1 |
| 20260503192357 | 59 | 264 | 7.0 | 11.0 | 0.00 | 0.00 | 0.00 | 68 | 1013.2 |
| 20260503191318 | 59 | 261 | 2.0 | 10.0 | 0.00 | 0.00 | 0.00 | 68 | 1013.1 |
| 20260503190353 | 59 | 259 | 5.0 | 11.0 | 0.00 | 0.00 | 0.00 | 68 | 1013.1 |
| 20260503185339 | 59 | 254 | 6.0 | 12.0 | 0.00 | 0.00 | 0.00 | 65 | 1013.1 |
| 20260503184330 | 59 | 249 | 7.0 | 15.0 | 0.00 | 0.00 | 0.00 | 66 | 1013.1 |
| 20260503183348 | 59 | 256 | 5.0 | 12.0 | 0.00 | 0.00 | 0.00 | 66 | 1013.0 |
| 20260503182334 | 59 | 252 | 5.0 | 11.0 | 0.00 | 0.00 | 0.00 | 68 | 1012.9 |
| 20260503181339 | 58 | 266 | 6.0 | 10.0 | 0.00 | 0.00 | 0.00 | 67 | 1012.8 |
| 20260503180320 | 57 | 243 | 5.0 | 12.0 | 0.00 | 0.00 | 0.00 | 70 | 1013.0 |
| 20260503175349 | 58 | 260 | 5.0 | 11.0 | 0.00 | 0.00 | 0.00 | 70 | 1013.0 |
| 20260503174314 | 57 | 274 | 6.0 | 12.0 | 0.00 | 0.00 | 0.00 | 70 | 1013.0 |
| 20260503173336 | 57 | 280 | 5.0 | 10.0 | 0.00 | 0.00 | 0.00 | 70 | 1013.0 |
| 20260503172331 | 57 | 246 | 5.0 | 9.0 | 0.00 | 0.00 | 0.00 | 70 | 1013.1 |
| 20260503171329 | 56 | 287 | 2.0 | 6.0 | 0.00 | 0.00 | 0.00 | 71 | 1013.0 |
| 20260503170335 | 56 | 265 | 2.0 | 9.0 | 0.00 | 0.00 | 0.00 | 71 | 1013.0 |
| 20260503150315 | 53 | 256 | 2.0 | 5.0 | 0.00 | 0.00 | 0.00 | 73 | 1012.4 |
| 20260503131348 | 52 | 264 | 0.0 | 3.0 | 0.00 | 0.00 | 0.00 | 77 | 1011.0 |
| 20260503130325 | 52 | 345 | 0.0 | 5.0 | 0.00 | 0.00 | 0.00 | 77 | 1010.8 |
| 20260503110321 | 52 | 345 | 4.0 | 9.0 | 0.00 | 0.00 | 0.00 | 76 | 1010.9 |
| 20260503090320 | 52 | 248 | 1.0 | 8.0 | 0.00 | 0.00 | 0.00 | 76 | 1011.3 |
| 20260503081321 | 52 | 345 | 4.0 | 6.0 | 0.00 | 0.00 | 0.00 | 76 | 1011.9 |
| 20260503080345 | 52 | 345 | 3.0 | 7.0 | 0.00 | 0.00 | 0.00 | 76 | 1011.8 |
| 20260503072329 | 52 | 345 | 3.0 | 6.0 | 0.00 | 0.00 | 0.00 | 76 | 1011.9 |
| 20260503071334 | 52 | 263 | 3.0 | 8.0 | 0.00 | 0.00 | 0.00 | 76 | 1011.8 |
| 20260503070318 | 52 | 314 | 1.0 | 10.0 | 0.00 | 0.00 | 0.00 | 76 | 1011.8 |
| 20260503060312 | 52 | 271 | 2.0 | 8.0 | 0.00 | 0.00 | 0.00 | 76 | 1012.2 |
| 20260503054329 | 52 | 292 | 1.0 | 6.0 | 0.00 | 0.00 | 0.00 | 76 | 1012.5 |
| 20260503053330 | 52 | 290 | 4.0 | 10.0 | 0.00 | 0.00 | 0.00 | 76 | 1012.4 |
| 20260503052353 | 52 | 259 | 3.0 | 8.0 | 0.00 | 0.00 | 0.00 | 76 | 1012.3 |
| 20260503051318 | 52 | 277 | 3.0 | 11.0 | 0.00 | 0.00 | 0.00 | 76 | 1012.3 |
| 20260503050323 | 52 | 302 | 5.0 | 9.0 | 0.00 | 0.00 | 0.00 | 76 | 1012.3 |
| 20260503045340 | 52 | 263 | 1.0 | 5.0 | 0.00 | 0.00 | 0.00 | 76 | 1012.2 |
| 20260503044349 | 52 | 283 | 6.0 | 12.0 | 0.00 | 0.00 | 0.00 | 76 | 1012.3 |
| 20260503043336 | 52 | 345 | 2.0 | 10.0 | 0.00 | 0.00 | 0.00 | 76 | 1012.3 |
| 20260503042324 | 52 | 345 | 3.0 | 10.0 | 0.00 | 0.00 | 0.00 | 76 | 1012.2 |
| 20260503041344 | 52 | 270 | 3.0 | 9.0 | 0.00 | 0.00 | 0.00 | 77 | 1012.2 |
| 20260503040331 | 53 | 345 | 1.0 | 6.0 | 0.00 | 0.00 | 0.00 | 77 | 1012.1 |
| 20260503035317 | 52 | 345 | 5.0 | 11.0 | 0.00 | 0.00 | 0.00 | 78 | 1012.0 |
| 20260503034326 | 53 | 345 | 4.0 | 13.0 | 0.00 | 0.00 | 0.00 | 77 | 1011.9 |
| 20260503032326 | 53 | 345 | 4.0 | 13.0 | 0.00 | 0.00 | 0.00 | 77 | 1011.6 |
| 20260503031313 | 53 | 345 | 3.0 | 12.0 | 0.00 | 0.00 | 0.00 | 77 | 1011.4 |
| 20260503030323 | 53 | 345 | 4.0 | 11.0 | 0.00 | 0.00 | 0.00 | 77 | 1011.5 |
| 20260503025318 | 53 | 345 | 6.0 | 13.0 | 0.00 | 0.00 | 0.00 | 77 | 1011.4 |
| 20260503024321 | 53 | 345 | 6.0 | 13.0 | 0.00 | 0.00 | 0.00 | 77 | 1011.5 |
| 20260503023333 | 53 | 345 | 4.0 | 14.0 | 0.00 | 0.00 | 0.00 | 77 | 1011.5 |
| 20260503022318 | 53 | 345 | 9.0 | 16.0 | 0.00 | 0.00 | 0.00 | 77 | 1011.5 |
| 20260503021327 | 53 | 345 | 6.0 | 14.0 | 0.00 | 0.00 | 0.00 | 78 | 1011.5 |
| 20260503020335 | 53 | 345 | 7.0 | 12.0 | 0.00 | 0.00 | 0.00 | 78 | 1011.6 |
| 20260503015346 | 53 | 345 | 6.0 | 13.0 | 0.00 | 0.00 | 0.00 | 78 | 1011.7 |
| 20260503014327 | 53 | 345 | 5.0 | 14.0 | 0.00 | 0.00 | 0.00 | 77 | 1011.7 |
| 20260503013333 | 54 | 345 | 7.0 | 15.0 | 0.00 | 0.00 | 0.00 | 77 | 1011.7 |
| 20260503012321 | 54 | 345 | 3.0 | 12.0 | 0.00 | 0.00 | 0.00 | 77 | 1011.8 |
| 20260503011331 | 54 | 345 | 8.0 | 12.0 | 0.00 | 0.00 | 0.00 | 76 | 1011.8 |
| 20260503010316 | 54 | 345 | 5.0 | 18.0 | 0.00 | 0.00 | 0.00 | 76 | 1011.8 |
| 20260503005327 | 54 | 345 | 6.0 | 16.0 | 0.00 | 0.00 | 0.00 | 75 | 1011.9 |
| 20260503004343 | 55 | 246 | 8.0 | 16.0 | 0.00 | 0.00 | 0.00 | 75 | 1011.9 |
| 20260503003321 | 55 | 264 | 7.0 | 15.0 | 0.00 | 0.00 | 0.00 | 75 | 1011.9 |
| 20260503002313 | 55 | 305 | 9.0 | 15.0 | 0.00 | 0.00 | 0.00 | 74 | 1011.9 |
| 20260503001325 | 56 | 252 | 7.0 | 14.0 | 0.00 | 0.00 | 0.00 | 74 | 1011.9 |
| 20260503000330 | 56 | 283 | 8.0 | 13.0 | 0.00 | 0.00 | 0.00 | 73 | 1011.9 |
| 20260502235321 | 56 | 258 | 8.0 | 16.0 | 0.00 | 0.00 | 0.00 | 72 | 1012.0 |
| 20260502234400 | 57 | 283 | 7.0 | 14.0 | 0.00 | 0.00 | 0.00 | 72 | 1011.9 |
| 20260502233318 | 58 | 261 | 7.0 | 16.0 | 0.00 | 0.00 | 0.00 | 71 | 1012.0 |
| 20260502232330 | 57 | 264 | 8.0 | 14.0 | 0.00 | 0.00 | 0.00 | 70 | 1012.1 |
| 20260502231318 | 58 | 283 | 8.0 | 14.0 | 0.00 | 0.00 | 0.00 | 70 | 1012.1 |
| 20260502230322 | 58 | 242 | 7.0 | 12.0 | 0.00 | 0.00 | 0.00 | 69 | 1012.3 |